When you browse on this site, cookies collect data to enhance your experience and personalize the content and advertising you see.
Visit our Privacy Policy to learn more. By continuing to use the site, you agree to this use of cookies and data.
  • In Hungary
  • List of Countries
  • For 7 days
  • Water Temperature
  • Satellite Maps
  • Weather Map
  • News
  • Weather Widgets
  • user-avatar
    Login

    Hourly Weather Viranşehir

    Today, 20 February, Wednesday

    Time Temperature Precipitation Wind Pressure Humidity
    00:00 +6°C° 0 mm 2 mps 713 mmHg 56%
    01:00 +6°C° 0 mm 2 mps 713 mmHg 57%
    02:00 +5°C° 0 mm 2 mps 713 mmHg 57%
    03:00 +6°C° 0 mm 1 mps 713 mmHg 59%
    04:00 +6°C° 0 mm 1 mps 713 mmHg 59%
    05:00 +5°C° 0 mm 2 mps 713 mmHg 58%
    06:00 +4°C° 0 mm 2 mps 713 mmHg 58%
    07:00 +5°C° 0 mm 2 mps 714 mmHg 56%
    08:00 +6°C° 0 mm 2 mps 714 mmHg 54%
    09:00 +8°C° 0 mm 2 mps 715 mmHg 51%
    10:00 +9°C° 0 mm 2 mps 715 mmHg 47%
    11:00 +10°C° 0 mm 2 mps 715 mmHg 43%
    12:00 +12°C° 0 mm 2 mps 715 mmHg 39%
    13:00 +13°C° 0 mm 2 mps 715 mmHg 39%
    14:00 +13°C° 0 mm 2 mps 714 mmHg 38%
    15:00 +14°C° 0 mm 1 mps 714 mmHg 38%
    16:00 +13°C° 0 mm 1 mps 714 mmHg 43%
    17:00 +12°C° 0 mm 1 mps 713 mmHg 48%
    18:00 +10°C° 0 mm 0 mps 713 mmHg 53%
    19:00 +10°C° 0 mm 1 mps 713 mmHg 54%
    20:00 +9°C° 0 mm 1 mps 713 mmHg 55%
    21:00 +8°C° 0 mm 2 mps 714 mmHg 55%
    22:00 +7°C° 0 mm 2 mps 714 mmHg 57%
    23:00 +7°C° 0 mm 2 mps 714 mmHg 58%

    Tomorrow, 21 February, Thursday

    Time Temperature Precipitation Wind Pressure Humidity
    00:00 +7°C° 0 mm 2 mps 714 mmHg 59%
    01:00 +6°C° 0 mm 2 mps 714 mmHg 60%
    02:00 +6°C° 0 mm 2 mps 714 mmHg 60%
    03:00 +6°C° 0 mm 2 mps 714 mmHg 60%
    04:00 +6°C° 0 mm 2 mps 714 mmHg 61%
    05:00 +6°C° 0 mm 2 mps 714 mmHg 62%
    06:00 +5°C° 0 mm 2 mps 714 mmHg 62%
    07:00 +6°C° 0 mm 2 mps 714 mmHg 60%
    08:00 +7°C° 0 mm 2 mps 714 mmHg 58%
    09:00 +8°C° 0 mm 2 mps 715 mmHg 56%
    10:00 +9°C° 0 mm 2 mps 715 mmHg 53%
    11:00 +12°C° 0 mm 1 mps 715 mmHg 49%
    12:00 +13°C° 0 mm 1 mps 715 mmHg 45%
    13:00 +13°C° 0 mm 1 mps 714 mmHg 45%
    14:00 +14°C° 0 mm 1 mps 714 mmHg 45%
    15:00 +13°C° 0 mm 0 mps 713 mmHg 44%
    16:00 +13°C° 0 mm 1 mps 713 mmHg 49%
    17:00 +12°C° 0 mm 1 mps 713 mmHg 54%
    18:00 +11°C° 0 mm 1 mps 713 mmHg 58%
    19:00 +11°C° 0 mm 1 mps 713 mmHg 60%
    20:00 +9°C° 0 mm 2 mps 713 mmHg 61%
    21:00 +8°C° 0 mm 2 mps 713 mmHg 62%
    22:00 +8°C° 0 mm 2 mps 713 mmHg 63%
    23:00 +8°C° 0 mm 2 mps 713 mmHg 64%

    Day after tomorrow, 22 February, Friday

    Time Temperature Precipitation Wind Pressure Humidity
    00:00 +7°C° 0 mm 2 mps 713 mmHg 64%
    01:00 +7°C° 0 mm 2 mps 713 mmHg 64%
    02:00 +7°C° 0 mm 2 mps 713 mmHg 65%
    03:00 +7°C° 0 mm 2 mps 713 mmHg 65%
    04:00 +6°C° 0 mm 2 mps 713 mmHg 65%
    05:00 +6°C° 0 mm 2 mps 713 mmHg 65%
    06:00 +5°C° 0 mm 3 mps 713 mmHg 66%
    07:00 +7°C° 0 mm 2 mps 713 mmHg 63%
    08:00 +7°C° 0 mm 2 mps 714 mmHg 61%
    09:00 +8°C° 0 mm 2 mps 714 mmHg 59%
    10:00 +9°C° 0 mm 2 mps 714 mmHg 56%
    11:00 +12°C° 0 mm 2 mps 714 mmHg 54%
    12:00 +12°C° 0 mm 3 mps 714 mmHg 51%
    13:00 +13°C° 0.1 mm 2 mps 713 mmHg 51%
    14:00 +13°C° 0.1 mm 2 mps 713 mmHg 51%
    15:00 +14°C° 0.1 mm 2 mps 712 mmHg 50%
    16:00 +13°C° 0.2 mm 2 mps 712 mmHg 55%
    17:00 +12°C° 0.2 mm 1 mps 712 mmHg 60%
    18:00 +11°C° 0.2 mm 1 mps 711 mmHg 65%
    19:00 +11°C° 0.1 mm 1 mps 712 mmHg 67%
    20:00 +10°C° 0.1 mm 1 mps 712 mmHg 70%
    21:00 +8°C° 0.1 mm 2 mps 712 mmHg 72%
    22:00 +8°C° 0.1 mm 2 mps 712 mmHg 74%
    23:00 +8°C° 0.1 mm 2 mps 712 mmHg 76%

    23 February, Saturday

    Time Temperature Precipitation Wind Pressure Humidity
    00:00 +7°C° 0.1 mm 2 mps 712 mmHg 79%
    01:00 +7°C° 0.2 mm 3 mps 712 mmHg 81%
    02:00 +7°C° 0.2 mm 3 mps 712 mmHg 83%
    03:00 +7°C° 0.2 mm 3 mps 712 mmHg 85%
    04:00 +7°C° 0.3 mm 3 mps 712 mmHg 87%
    05:00 +7°C° 0.3 mm 3 mps 712 mmHg 88%
    06:00 +6°C° 0.3 mm 4 mps 712 mmHg 89%
    07:00 +6°C° 0.2 mm 4 mps 712 mmHg 88%
    08:00 +7°C° 0.2 mm 5 mps 713 mmHg 87%
    09:00 +7°C° 0.2 mm 6 mps 713 mmHg 86%
    10:00 +8°C° 0.1 mm 6 mps 713 mmHg 80%
    11:00 +10°C° 0.1 mm 6 mps 713 mmHg 74%
    12:00 +11°C° 0.1 mm 6 mps 713 mmHg 69%
    13:00 +11°C° 0.3 mm 6 mps 713 mmHg 65%
    14:00 +13°C° 0.3 mm 6 mps 713 mmHg 61%
    15:00 +14°C° 0.3 mm 7 mps 712 mmHg 58%
    16:00 +13°C° 1.1 mm 6 mps 712 mmHg 63%
    17:00 +11°C° 1.1 mm 6 mps 712 mmHg 68%
    18:00 +10°C° 1.1 mm 5 mps 712 mmHg 73%
    19:00 +9°C° 0.6 mm 5 mps 712 mmHg 76%
    20:00 +8°C° 0.6 mm 4 mps 712 mmHg 79%
    21:00 +8°C° 0.6 mm 3 mps 713 mmHg 83%
    22:00 +8°C° 0.2 mm 3 mps 713 mmHg 82%
    23:00 +7°C° 0.2 mm 3 mps 713 mmHg 81%

    24 February, Sunday

    Time Temperature Precipitation Wind Pressure Humidity
    00:00 +7°C° 0.2 mm 3 mps 713 mmHg 80%
    01:00 +7°C° 0 mm 3 mps 713 mmHg 81%
    02:00 +7°C° 0 mm 3 mps 713 mmHg 82%
    03:00 +5°C° 0 mm 3 mps 713 mmHg 83%
    04:00 +5°C° 0 mm 3 mps 713 mmHg 83%
    05:00 +5°C° 0 mm 3 mps 713 mmHg 83%
    06:00 +5°C° 0 mm 3 mps 713 mmHg 82%
    07:00 +7°C° 0 mm 3 mps 714 mmHg 79%
    08:00 +8°C° 0 mm 3 mps 714 mmHg 76%
    09:00 +8°C° 0 mm 4 mps 715 mmHg 72%
    10:00 +11°C° 0 mm 4 mps 715 mmHg 66%
    11:00 +12°C° 0 mm 4 mps 715 mmHg 60%
    12:00 +14°C° 0 mm 4 mps 715 mmHg 54%
    13:00 +14°C° 0 mm 4 mps 715 mmHg 52%
    14:00 +15°C° 0 mm 5 mps 714 mmHg 51%
    15:00 +15°C° 0 mm 5 mps 714 mmHg 49%
    16:00 +14°C° 0 mm 4 mps 714 mmHg 53%
    17:00 +13°C° 0 mm 4 mps 713 mmHg 57%
    18:00 +12°C° 0 mm 3 mps 713 mmHg 62%
    19:00 +11°C° 0 mm 3 mps 713 mmHg 61%
    20:00 +11°C° 0 mm 4 mps 714 mmHg 61%
    21:00 +10°C° 0 mm 4 mps 714 mmHg 61%
    22:00 +10°C° 0 mm 4 mps 714 mmHg 60%
    23:00 +10°C° 0 mm 4 mps 714 mmHg 60%

    25 February, Monday

    Time Temperature Precipitation Wind Pressure Humidity
    00:00 +10°C° 0 mm 4 mps 714 mmHg 59%
    01:00 +10°C° 0.1 mm 4 mps 714 mmHg 62%
    02:00 +10°C° 0.1 mm 4 mps 713 mmHg 65%
    03:00 +8°C° 0.1 mm 4 mps 713 mmHg 68%
    04:00 +8°C° 0.2 mm 4 mps 713 mmHg 70%
    05:00 +8°C° 0.2 mm 4 mps 713 mmHg 71%
    06:00 +8°C° 0.2 mm 5 mps 713 mmHg 73%
    07:00 +8°C° 0.1 mm 5 mps 713 mmHg 71%
    08:00 +9°C° 0.1 mm 5 mps 713 mmHg 68%
    09:00 +9°C° 0.1 mm 6 mps 713 mmHg 66%
    10:00 +9°C° 0.6 mm 6 mps 712 mmHg 67%
    11:00 +9°C° 0.6 mm 6 mps 712 mmHg 68%
    12:00 +9°C° 0.6 mm 6 mps 711 mmHg 70%
    13:00 +10°C° 0 mm 6 mps 711 mmHg 65%
    14:00 +11°C° 0 mm 7 mps 710 mmHg 60%
    15:00 +12°C° 0 mm 7 mps 710 mmHg 55%
    16:00 +11°C° 0 mm 7 mps 709 mmHg 57%
    17:00 +10°C° 0 mm 6 mps 709 mmHg 59%
    18:00 +10°C° 0 mm 6 mps 708 mmHg 61%
    19:00 +9°C° 0.3 mm 6 mps 708 mmHg 63%
    20:00 +9°C° 0.3 mm 6 mps 707 mmHg 64%
    21:00 +9°C° 0.3 mm 7 mps 707 mmHg 66%
    22:00 +9°C° 0.1 mm 7 mps 706 mmHg 65%
    23:00 +9°C° 0.1 mm 7 mps 706 mmHg 64%
    Show more